Regional Weather Roundup
Issued by NWS Goodland, KS

Home | Current Version | Previous Version | Text Only | Print | Product List | Glossary Off
Versions: 1 2 3 4 5 6 7 8 9 10 11 12 13 14 15 16 17 18 19 20 21 22 23 24 25 26 27 28 29 30 31 32 33 34 35 36 37 38 39 40 41 42 43 44 45 46 47 48 49 50

000
ASUS43 KGLD 220559
RWRGLD

GOODLAND FORECAST AREA HOURLY WEATHER ROUNDUP
NATIONAL WEATHER SERVICE GOODLAND KS
1200 AM MDT FRI SEP 22 2017

...OFFICIAL OBSERVATIONS...

CITY           SKY/WX    TMP DP  RH WIND       PRES   REMARKS
GOODLAND KS    CLEAR     68  43  40 S14       29.71S
HILL CITY KS   CLEAR     82  68  62 S26G39    29.73S
IMPERIAL NEB   CLEAR     72  38  29 S12       29.65R
MCCOOK NEB     LGT RAIN  81  64  56 S24G32    29.66S
AKRON CO       CLEAR     67  25  20 S12       29.69R
BURLINGTON CO  CLEAR     65  37  35 S15       29.73S
LIMON CO       CLEAR     61  23  23 SE6       29.78S
$$

...UNOFFICIAL OBSERVATIONS...

CITY           SKY/WX    TMP DP  RH WIND       PRES   REMARKS
NORTON KS      CLEAR     81  61  50 S20G33    29.70S
SHARON SPRINGS   N/A     71  47  41 S14G22      N/A
KIT CARSON CO    N/A     64  33  32 MISG        N/A
YUMA CO        FAIR      54  34  47 S6        29.68S
$$




USA.gov is the U.S. government's official web portal to all federal, state and local government web resources and services.